Time,TemperatureF,DewpointF,PressureIn,WindDirection,WindDirectionDegrees,WindSpeedMPH,WindSpeedGustMPH,Humidity,HourlyPrecipIn,Conditions,Clouds,dailyrainin,SoftwareType,DateUTC
2013-04-04 00:03:00,54.3,50.8,30.09,SE,129,2.0,2.0,88,0.00,,,0.00,Wunderground v.1.15,2013-04-03 10:03:00,
2013-04-04 00:13:00,54.2,50.4,30.09,East,87,2.0,2.0,87,0.00,,,0.00,Wunderground v.1.15,2013-04-03 10:13:00,
2013-04-04 00:23:00,54.1,50.3,30.09,ESE,117,2.0,2.0,87,0.00,,,0.00,Wunderground v.1.15,2013-04-03 10:23:00,
2013-04-04 00:33:00,54.0,50.2,30.08,ESE,109,2.0,4.0,87,0.00,,,0.00,Wunderground v.1.15,2013-04-03 10:33:00,
2013-04-04 00:43:00,53.9,50.1,30.08,ESE,112,3.0,3.0,87,0.00,,,0.00,Wunderground v.1.15,2013-04-03 10:43:00,
2013-04-04 00:48:00,53.8,50.0,30.08,East,84,3.0,3.0,87,0.00,,,0.00,Wunderground v.1.15,2013-04-03 10:48:00,
2013-04-04 00:58:00,53.5,49.7,30.08,ESE,103,2.0,2.0,87,0.00,,,0.00,Wunderground v.1.15,2013-04-03 10:58:00,
2013-04-04 01:03:00,53.4,49.6,30.08,East,89,2.0,2.0,87,0.00,,,0.00,Wunderground v.1.15,2013-04-03 11:03:00,
2013-04-04 01:13:00,53.2,49.4,30.08,ENE,77,2.0,4.0,87,0.00,,,0.00,Wunderground v.1.15,2013-04-03 11:13:00,
2013-04-04 01:18:00,53.1,49.3,30.08,ESE,117,2.0,2.0,87,0.00,,,0.00,Wunderground v.1.15,2013-04-03 11:18:00,
2013-04-04 01:28:00,53.0,49.5,30.08,ESE,113,2.0,2.0,88,0.00,,,0.00,Wunderground v.1.15,2013-04-03 11:28:00,
2013-04-04 01:33:00,52.8,49.3,30.08,ESE,105,1.0,2.0,88,0.00,,,0.00,Wunderground v.1.15,2013-04-03 11:33:00,
2013-04-04 01:43:00,52.6,49.1,30.08,ESE,113,1.0,1.0,88,0.00,,,0.00,Wunderground v.1.15,2013-04-03 11:43:00,
2013-04-04 01:48:00,52.4,48.9,30.08,SE,132,1.0,1.0,88,0.00,,,0.00,Wunderground v.1.15,2013-04-03 11:48:00,
2013-04-04 01:58:00,52.1,49.0,30.08,SE,141,0.0,1.0,89,0.00,,,0.00,Wunderground v.1.15,2013-04-03 11:58:00,
2013-04-04 02:03:00,51.9,48.8,30.08,SE,141,0.0,1.0,89,0.00,,,0.00,Wunderground v.1.15,2013-04-03 12:03:00,
2013-04-04 02:13:00,51.7,48.9,30.09,SE,141,0.0,0.0,90,0.00,,,0.00,Wunderground v.1.15,2013-04-03 12:13:00,
2013-04-04 02:18:00,51.3,48.5,30.09,SE,141,0.0,0.0,90,0.00,,,0.00,Wunderground v.1.15,2013-04-03 12:18:00,
2013-04-04 02:23:00,51.1,48.6,30.09,SE,141,0.0,0.0,91,0.00,,,0.00,Wunderground v.1.15,2013-04-03 12:23:00,
2013-04-04 02:38:00,50.8,48.6,30.09,SE,143,0.0,1.0,92,0.00,,,0.00,Wunderground v.1.15,2013-04-03 12:38:00,
2013-04-04 02:43:00,50.7,48.5,30.09,SSE,148,0.0,1.0,92,0.00,,,0.00,Wunderground v.1.15,2013-04-03 12:43:00,
2013-04-04 02:48:00,50.6,48.4,30.09,SSE,153,1.0,1.0,92,0.00,,,0.00,Wunderground v.1.15,2013-04-03 12:48:00,
2013-04-04 02:58:00,50.6,48.4,30.09,SSE,164,1.0,1.0,92,0.00,,,0.00,Wunderground v.1.15,2013-04-03 12:58:00,
2013-04-04 03:03:00,50.7,48.5,30.09,SSE,156,1.0,1.0,92,0.00,,,0.00,Wunderground v.1.15,2013-04-03 13:03:00,
2013-04-04 03:13:00,50.6,48.4,30.09,SSE,155,0.0,0.0,92,0.00,,,0.00,Wunderground v.1.15,2013-04-03 13:13:00,
2013-04-04 03:23:00,50.6,48.4,30.09,SSE,147,1.0,1.0,92,0.00,,,0.00,Wunderground v.1.15,2013-04-03 13:23:00,
2013-04-04 03:33:00,50.8,48.6,30.08,ESE,120,1.0,1.0,92,0.00,,,0.00,Wunderground v.1.15,2013-04-03 13:33:00,
2013-04-04 03:38:00,50.9,48.4,30.09,ESE,120,0.0,0.0,91,0.00,,,0.00,Wunderground v.1.15,2013-04-03 13:38:00,
2013-04-04 03:48:00,50.9,48.4,30.09,ESE,120,0.0,0.0,91,0.00,,,0.00,Wunderground v.1.15,2013-04-03 13:48:00,
2013-04-04 03:53:00,50.8,48.3,30.09,ESE,120,0.0,0.0,91,0.00,,,0.00,Wunderground v.1.15,2013-04-03 13:53:00,
2013-04-04 04:03:00,51.0,48.5,30.10,SE,146,0.0,0.0,91,0.00,,,0.00,Wunderground v.1.15,2013-04-03 14:03:00,
2013-04-04 04:13:00,51.3,48.8,30.10,SSE,147,0.0,0.0,91,0.00,,,0.00,Wunderground v.1.15,2013-04-03 14:13:00,
2013-04-04 04:23:00,51.6,48.8,30.10,East,96,0.0,0.0,90,0.00,,,0.00,Wunderground v.1.15,2013-04-03 14:23:00,
2013-04-04 04:33:00,51.6,48.8,30.10,East,83,0.0,1.0,90,0.00,,,0.00,Wunderground v.1.15,2013-04-03 14:33:00,
2013-04-04 04:43:00,51.4,48.6,30.11,East,83,0.0,0.0,90,0.00,,,0.00,Wunderground v.1.15,2013-04-03 14:43:00,
2013-04-04 04:48:00,51.5,49.0,30.11,East,83,0.0,0.0,91,0.00,,,0.00,Wunderground v.1.15,2013-04-03 14:48:00,
2013-04-04 04:58:00,51.7,49.2,30.11,East,83,0.0,0.0,91,0.00,,,0.00,Wunderground v.1.15,2013-04-03 14:58:00,
2013-04-04 05:03:00,51.9,49.4,30.11,East,84,0.0,0.0,91,0.00,,,0.00,Wunderground v.1.15,2013-04-03 15:03:00,
2013-04-04 05:13:00,52.5,49.9,30.12,SSE,150,0.0,0.0,91,0.00,,,0.00,Wunderground v.1.15,2013-04-03 15:13:00,
2013-04-04 05:23:00,53.3,50.1,30.12,SSW,193,0.0,0.0,89,0.00,,,0.00,Wunderground v.1.15,2013-04-03 15:23:00,
2013-04-04 05:28:00,53.6,50.4,30.13,SE,146,0.0,0.0,89,0.00,,,0.00,Wunderground v.1.15,2013-04-03 15:28:00,
2013-04-04 05:38:00,54.3,50.5,30.12,SE,132,0.0,0.0,87,0.00,,,0.00,Wunderground v.1.15,2013-04-03 15:38:00,
2013-04-04 05:48:00,55.1,51.0,30.12,SE,132,0.0,0.0,86,0.00,,,0.00,Wunderground v.1.15,2013-04-03 15:48:00,
2013-04-04 05:58:00,56.1,51.0,30.12,East,88,1.0,1.0,83,0.00,,,0.00,Wunderground v.1.15,2013-04-03 15:58:00,
2013-04-04 06:03:00,56.6,51.2,30.12,ENE,78,1.0,1.0,82,0.00,,,0.00,Wunderground v.1.15,2013-04-03 16:03:00,
2013-04-04 06:13:00,57.9,51.4,30.12,East,91,1.0,1.0,79,0.00,,,0.00,Wunderground v.1.15,2013-04-03 16:13:00,
2013-04-04 06:28:00,60.7,52.0,30.12,North,6,1.0,1.0,73,0.00,,,0.00,Wunderground v.1.15,2013-04-03 16:28:00,
2013-04-04 06:33:00,60.8,52.1,30.12,East,93,0.0,1.0,73,0.00,,,0.00,Wunderground v.1.15,2013-04-03 16:33:00,
2013-04-04 06:38:00,60.5,51.4,30.12,NNE,32,1.0,1.0,72,0.00,,,0.00,Wunderground v.1.15,2013-04-03 16:38:00,
2013-04-04 06:48:00,61.1,52.4,30.12,East,96,1.0,2.0,73,0.00,,,0.00,Wunderground v.1.15,2013-04-03 16:48:00,
2013-04-04 06:53:00,61.5,52.4,30.12,NW,316,1.0,3.0,72,0.00,,,0.00,Wunderground v.1.15,2013-04-03 16:53:00,
2013-04-04 07:03:00,61.3,52.6,30.12,NW,323,2.0,2.0,73,0.00,,,0.00,Wunderground v.1.15,2013-04-03 17:03:00,
2013-04-04 07:13:00,61.0,51.9,30.12,NW,308,2.0,2.0,72,0.00,,,0.00,Wunderground v.1.15,2013-04-03 17:13:00,
2013-04-04 07:23:00,61.5,52.8,30.12,NW,311,2.0,2.0,73,0.00,,,0.00,Wunderground v.1.15,2013-04-03 17:23:00,
2013-04-04 07:33:00,62.1,53.7,30.12,North,4,1.0,2.0,74,0.00,,,0.00,Wunderground v.1.15,2013-04-03 17:33:00,
2013-04-04 07:38:00,62.5,53.0,30.12,NNW,328,2.0,2.0,71,0.00,,,0.00,Wunderground v.1.15,2013-04-03 17:38:00,
2013-04-04 07:48:00,63.4,53.4,30.12,WNW,291,1.0,3.0,70,0.00,,,0.00,Wunderground v.1.15,2013-04-03 17:48:00,
2013-04-04 07:58:00,63.6,53.2,30.12,WSW,246,2.0,2.0,69,0.00,,,0.00,Wunderground v.1.15,2013-04-03 17:58:00,
2013-04-04 08:03:00,64.0,53.2,30.12,NW,309,2.0,2.0,68,0.00,,,0.00,Wunderground v.1.15,2013-04-03 18:03:00,
2013-04-04 08:13:00,65.1,53.5,30.11,ENE,57,1.0,1.0,66,0.00,,,0.00,Wunderground v.1.15,2013-04-03 18:13:00,
2013-04-04 08:23:00,66.2,54.1,30.12,SSE,149,1.0,1.0,65,0.00,,,0.00,Wunderground v.1.15,2013-04-03 18:23:00,
2013-04-04 08:28:00,66.7,53.7,30.12,West,272,1.0,1.0,63,0.00,,,0.00,Wunderground v.1.15,2013-04-03 18:28:00,
2013-04-04 08:33:00,66.6,53.6,30.12,North,5,1.0,1.0,63,0.00,,,0.00,Wunderground v.1.15,2013-04-03 18:33:00,
2013-04-04 08:43:00,66.8,53.4,30.11,NW,311,1.0,3.0,62,0.00,,,0.00,Wunderground v.1.15,2013-04-03 18:43:00,
2013-04-04 08:53:00,67.3,53.8,30.11,WNW,295,2.0,4.0,62,0.00,,,0.00,Wunderground v.1.15,2013-04-03 18:53:00,
2013-04-04 08:58:00,66.9,53.5,30.11,WNW,294,2.0,3.0,62,0.00,,,0.00,Wunderground v.1.15,2013-04-03 18:58:00,
2013-04-04 09:03:00,67.2,54.2,30.10,WSW,255,2.0,4.0,63,0.00,,,0.00,Wunderground v.1.15,2013-04-03 19:03:00,
2013-04-04 09:13:00,68.4,53.5,30.10,SSW,195,1.0,2.0,59,0.00,,,0.00,Wunderground v.1.15,2013-04-03 19:13:00,
2013-04-04 09:23:00,68.9,54.9,30.09,West,281,1.0,2.0,61,0.00,,,0.00,Wunderground v.1.15,2013-04-03 19:23:00,
2013-04-04 09:28:00,69.6,55.1,30.09,West,262,1.0,1.0,60,0.00,,,0.00,Wunderground v.1.15,2013-04-03 19:28:00,
2013-04-04 09:38:00,69.8,54.8,30.09,WSW,252,2.0,2.0,59,0.00,,,0.00,Wunderground v.1.15,2013-04-03 19:38:00,
2013-04-04 09:48:00,69.7,54.7,30.08,East,94,2.0,2.0,59,0.00,,,0.00,Wunderground v.1.15,2013-04-03 19:48:00,
2013-04-04 09:53:00,70.2,54.7,30.08,ENE,61,2.0,2.0,58,0.00,,,0.00,Wunderground v.1.15,2013-04-03 19:53:00,
2013-04-04 10:03:00,70.5,55.9,30.08,SSW,193,2.0,2.0,60,0.00,,,0.00,Wunderground v.1.15,2013-04-03 20:03:00,
2013-04-04 10:13:00,70.5,56.4,30.07,WSW,248,2.0,2.0,61,0.00,,,0.00,Wunderground v.1.15,2013-04-03 20:13:00,
2013-04-04 10:23:00,71.2,57.1,30.07,WNW,290,1.0,2.0,61,0.00,,,0.00,Wunderground v.1.15,2013-04-03 20:23:00,
2013-04-04 10:28:00,71.5,56.4,30.07,NW,313,2.0,4.0,59,0.00,,,0.00,Wunderground v.1.15,2013-04-03 20:28:00,
2013-04-04 10:38:00,70.8,55.8,30.07,WSW,250,3.0,5.0,59,0.00,,,0.00,Wunderground v.1.15,2013-04-03 20:38:00,
2013-04-04 10:48:00,71.6,55.1,30.06,WSW,257,3.0,4.0,56,0.00,,,0.00,Wunderground v.1.15,2013-04-03 20:48:00,
2013-04-04 10:53:00,71.8,55.3,30.06,SE,145,2.0,4.0,56,0.00,,,0.00,Wunderground v.1.15,2013-04-03 20:53:00,
2013-04-04 11:03:00,72.7,55.1,30.05,NW,326,2.0,2.0,54,0.00,,,0.00,Wunderground v.1.15,2013-04-03 21:03:00,
2013-04-04 11:13:00,72.7,54.1,30.05,SSW,193,2.0,3.0,52,0.00,,,0.00,Wunderground v.1.15,2013-04-03 21:13:00,
2013-04-04 11:18:00,73.2,55.6,30.04,NW,309,2.0,5.0,54,0.00,,,0.00,Wunderground v.1.15,2013-04-03 21:18:00,
2013-04-04 11:23:00,72.8,55.2,30.04,West,267,3.0,5.0,54,0.00,,,0.00,Wunderground v.1.15,2013-04-03 21:23:00,
2013-04-04 11:33:00,73.1,54.9,30.03,NNE,23,2.0,4.0,53,0.00,,,0.00,Wunderground v.1.15,2013-04-03 21:33:00,
2013-04-04 11:38:00,73.1,54.4,30.03,ENE,63,2.0,2.0,52,0.00,,,0.00,Wunderground v.1.15,2013-04-03 21:38:00,
2013-04-04 11:48:00,73.7,56.0,30.02,NNE,27,1.0,3.0,54,0.00,,,0.00,Wunderground v.1.15,2013-04-03 21:48:00,
2013-04-04 11:58:00,73.4,55.2,30.02,NW,308,2.0,4.0,53,0.00,,,0.00,Wunderground v.1.15,2013-04-03 21:58:00,
2013-04-04 12:03:00,73.4,55.2,30.02,NNW,347,2.0,4.0,53,0.00,,,0.00,Wunderground v.1.15,2013-04-03 22:03:00,
2013-04-04 12:13:00,73.4,55.2,30.01,NW,314,2.0,4.0,53,0.00,,,0.00,Wunderground v.1.15,2013-04-03 22:13:00,
2013-04-04 12:23:00,73.0,54.9,30.01,WNW,287,2.0,2.0,53,0.00,,,0.00,Wunderground v.1.15,2013-04-03 22:23:00,
2013-04-04 12:28:00,73.2,55.0,30.01,WSW,239,2.0,2.0,53,0.00,,,0.00,Wunderground v.1.15,2013-04-03 22:28:00,
2013-04-04 12:33:00,73.3,55.6,30.01,WNW,298,2.0,2.0,54,0.00,,,0.00,Wunderground v.1.15,2013-04-03 22:33:00,
2013-04-04 12:43:00,73.6,55.4,30.01,North,349,4.0,5.0,53,0.00,,,0.00,Wunderground v.1.15,2013-04-03 22:43:00,
2013-04-04 12:48:00,73.7,55.5,30.01,West,269,4.0,4.0,53,0.00,,,0.00,Wunderground v.1.15,2013-04-03 22:48:00,
2013-04-04 12:58:00,74.6,55.3,30.00,WNW,287,2.0,2.0,51,0.00,,,0.00,Wunderground v.1.15,2013-04-03 22:58:00,
2013-04-04 13:08:00,74.6,55.3,30.00,NE,43,2.0,2.0,51,0.00,,,0.00,Wunderground v.1.15,2013-04-03 23:08:00,
2013-04-04 13:18:00,74.6,54.7,30.00,NW,306,2.0,2.0,50,0.00,,,0.00,Wunderground v.1.15,2013-04-03 23:18:00,
2013-04-04 13:23:00,75.0,55.1,29.99,NW,319,2.0,2.0,50,0.00,,,0.00,Wunderground v.1.15,2013-04-03 23:23:00,
2013-04-04 13:33:00,75.7,55.7,29.99,West,274,2.0,3.0,50,0.00,,,0.00,Wunderground v.1.15,2013-04-03 23:33:00,
2013-04-04 13:38:00,75.6,55.1,29.99,WSW,248,2.0,3.0,49,0.00,,,0.00,Wunderground v.1.15,2013-04-03 23:38:00,
2013-04-04 13:48:00,75.5,55.0,29.99,WNW,288,3.0,4.0,49,0.00,,,0.00,Wunderground v.1.15,2013-04-03 23:48:00,
2013-04-04 13:53:00,75.5,55.0,29.99,WSW,246,2.0,4.0,49,0.00,,,0.00,Wunderground v.1.15,2013-04-03 23:53:00,
2013-04-04 14:03:00,75.3,55.4,29.98,West,276,3.0,3.0,50,0.00,,,0.00,Wunderground v.1.15,2013-04-04 00:03:00,
2013-04-04 14:13:00,75.3,55.4,29.98,WNW,301,2.0,4.0,50,0.00,,,0.00,Wunderground v.1.15,2013-04-04 00:13:00,
2013-04-04 14:23:00,75.1,54.6,29.98,West,270,3.0,3.0,49,0.00,,,0.00,Wunderground v.1.15,2013-04-04 00:23:00,
2013-04-04 14:33:00,75.0,54.5,29.97,West,278,2.0,3.0,49,0.00,,,0.00,Wunderground v.1.15,2013-04-04 00:33:00,
2013-04-04 14:38:00,75.1,55.2,29.97,NNW,337,2.0,2.0,50,0.00,,,0.00,Wunderground v.1.15,2013-04-04 00:38:00,
2013-04-04 14:48:00,75.4,55.5,29.97,NW,312,2.0,4.0,50,0.00,,,0.00,Wunderground v.1.15,2013-04-04 00:48:00,
2013-04-04 14:53:00,75.4,55.5,29.97,NW,304,2.0,4.0,50,0.00,,,0.00,Wunderground v.1.15,2013-04-04 00:53:00,
2013-04-04 15:03:00,74.9,55.6,29.96,WNW,298,3.0,4.0,51,0.00,,,0.00,Wunderground v.1.15,2013-04-04 01:03:00,
2013-04-04 15:13:00,74.6,55.3,29.96,WNW,288,3.0,3.0,51,0.00,,,0.00,Wunderground v.1.15,2013-04-04 01:13:00,
2013-04-04 15:18:00,74.4,55.1,29.96,WNW,284,2.0,2.0,51,0.00,,,0.00,Wunderground v.1.15,2013-04-04 01:18:00,
2013-04-04 15:28:00,74.0,55.3,29.96,NNW,336,2.0,2.0,52,0.00,,,0.00,Wunderground v.1.15,2013-04-04 01:28:00,
2013-04-04 15:33:00,74.0,55.3,29.96,NNW,338,2.0,3.0,52,0.00,,,0.00,Wunderground v.1.15,2013-04-04 01:33:00,
2013-04-04 15:38:00,73.9,55.7,29.96,NNW,336,2.0,3.0,53,0.00,,,0.00,Wunderground v.1.15,2013-04-04 01:38:00,
2013-04-04 15:48:00,73.6,55.4,29.97,WNW,302,3.0,3.0,53,0.00,,,0.00,Wunderground v.1.15,2013-04-04 01:48:00,
2013-04-04 15:53:00,73.3,54.6,29.96,NNW,340,3.0,3.0,52,0.00,,,0.00,Wunderground v.1.15,2013-04-04 01:53:00,
2013-04-04 16:03:00,72.7,55.1,29.96,NW,316,2.0,3.0,54,0.00,,,0.00,Wunderground v.1.15,2013-04-04 02:03:00,
2013-04-04 16:13:00,72.3,54.7,29.96,NW,308,2.0,2.0,54,0.00,,,0.00,Wunderground v.1.15,2013-04-04 02:13:00,
2013-04-04 16:18:00,72.0,54.9,29.96,NW,316,1.0,1.0,55,0.00,,,0.00,Wunderground v.1.15,2013-04-04 02:18:00,
2013-04-04 16:28:00,71.4,55.4,29.95,North,358,1.0,1.0,57,0.00,,,0.00,Wunderground v.1.15,2013-04-04 02:28:00,
2013-04-04 16:33:00,71.1,55.1,29.95,North,6,1.0,1.0,57,0.00,,,0.00,Wunderground v.1.15,2013-04-04 02:33:00,
2013-04-04 16:43:00,70.6,55.1,29.95,North,6,0.0,1.0,58,0.00,,,0.00,Wunderground v.1.15,2013-04-04 02:43:00,
2013-04-04 16:48:00,70.4,54.9,29.95,North,6,0.0,0.0,58,0.00,,,0.00,Wunderground v.1.15,2013-04-04 02:48:00,
2013-04-04 16:58:00,69.8,55.3,29.96,SW,214,0.0,0.0,60,0.00,,,0.00,Wunderground v.1.15,2013-04-04 02:58:00,
2013-04-04 17:03:00,69.5,55.0,29.95,SW,214,0.0,0.0,60,0.00,,,0.00,Wunderground v.1.15,2013-04-04 03:03:00,
2013-04-04 17:08:00,69.2,55.2,29.96,SW,218,0.0,0.0,61,0.00,,,0.00,Wunderground v.1.15,2013-04-04 03:08:00,
2013-04-04 17:18:00,68.4,54.9,29.96,SSW,207,0.0,0.0,62,0.00,,,0.00,Wunderground v.1.15,2013-04-04 03:18:00,
2013-04-04 17:23:00,67.9,54.8,29.97,SSW,207,0.0,0.0,63,0.00,,,0.00,Wunderground v.1.15,2013-04-04 03:23:00,
2013-04-04 17:33:00,67.3,55.5,29.96,SSW,207,0.0,0.0,66,0.00,,,0.00,Wunderground v.1.15,2013-04-04 03:33:00,
2013-04-04 17:43:00,66.7,55.4,29.96,SSW,207,0.0,0.0,67,0.00,,,0.00,Wunderground v.1.15,2013-04-04 03:43:00,
2013-04-04 17:53:00,66.7,55.4,29.96,SSW,207,0.0,0.0,67,0.00,,,0.00,Wunderground v.1.15,2013-04-04 03:53:00,
2013-04-04 17:58:00,66.8,55.1,29.96,ESE,121,0.0,1.0,66,0.00,,,0.00,Wunderground v.1.15,2013-04-04 03:58:00,
2013-04-04 18:08:00,66.9,55.2,29.96,ESE,122,0.0,0.0,66,0.00,,,0.00,Wunderground v.1.15,2013-04-04 04:08:00,
2013-04-04 18:13:00,66.3,55.0,29.96,ESE,121,0.0,0.0,67,0.00,,,0.00,Wunderground v.1.15,2013-04-04 04:13:00,
2013-04-04 18:23:00,65.8,55.3,29.96,ESE,120,0.0,0.0,69,0.00,,,0.00,Wunderground v.1.15,2013-04-04 04:23:00,
2013-04-04 18:28:00,65.7,55.2,29.96,ESE,120,0.0,0.0,69,0.00,,,0.00,Wunderground v.1.15,2013-04-04 04:28:00,
2013-04-04 18:33:00,65.4,55.4,29.96,ESE,120,0.0,0.0,70,0.00,,,0.00,Wunderground v.1.15,2013-04-04 04:33:00,
2013-04-04 18:43:00,65.2,54.8,29.96,ESE,120,0.0,1.0,69,0.00,,,0.00,Wunderground v.1.15,2013-04-04 04:43:00,
2013-04-04 18:53:00,65.0,55.0,29.96,ESE,120,0.0,0.0,70,0.00,,,0.00,Wunderground v.1.15,2013-04-04 04:53:00,
2013-04-04 18:58:00,64.8,55.2,29.96,ESE,120,0.0,0.0,71,0.00,,,0.00,Wunderground v.1.15,2013-04-04 04:58:00,
2013-04-04 19:03:00,64.7,55.1,29.96,ESE,120,0.0,0.0,71,0.00,,,0.00,Wunderground v.1.15,2013-04-04 05:03:00,
2013-04-04 19:13:00,64.7,54.7,29.96,ESE,120,0.0,0.0,70,0.00,,,0.00,Wunderground v.1.15,2013-04-04 05:13:00,
2013-04-04 19:18:00,64.4,54.4,29.96,ESE,120,0.0,0.0,70,0.00,,,0.00,Wunderground v.1.15,2013-04-04 05:18:00,
2013-04-04 19:23:00,64.2,54.6,29.96,ESE,120,0.0,0.0,71,0.00,,,0.00,Wunderground v.1.15,2013-04-04 05:23:00,
2013-04-04 19:33:00,63.1,54.3,29.96,ESE,120,0.0,0.0,73,0.00,,,0.00,Wunderground v.1.15,2013-04-04 05:33:00,
2013-04-04 19:38:00,62.6,54.6,29.96,ESE,120,0.0,0.0,75,0.00,,,0.00,Wunderground v.1.15,2013-04-04 05:38:00,
2013-04-04 19:48:00,62.9,54.5,29.96,ESE,120,0.0,0.0,74,0.00,,,0.00,Wunderground v.1.15,2013-04-04 05:48:00,
2013-04-04 19:53:00,62.6,54.2,29.97,ESE,120,0.0,0.0,74,0.00,,,0.00,Wunderground v.1.15,2013-04-04 05:53:00,
2013-04-04 20:03:00,61.9,54.2,29.97,ESE,120,0.0,0.0,76,0.00,,,0.00,Wunderground v.1.15,2013-04-04 06:03:00,
2013-04-04 20:13:00,62.3,54.3,29.97,East,87,0.0,1.0,75,0.00,,,0.00,Wunderground v.1.15,2013-04-04 06:13:00,
2013-04-04 20:18:00,62.3,53.9,29.97,East,91,0.0,0.0,74,0.00,,,0.00,Wunderground v.1.15,2013-04-04 06:18:00,
2013-04-04 20:28:00,61.6,53.6,29.97,SE,146,0.0,1.0,75,0.00,,,0.00,Wunderground v.1.15,2013-04-04 06:28:00,
2013-04-04 20:38:00,61.6,54.0,29.97,SSE,150,1.0,1.0,76,0.00,,,0.00,Wunderground v.1.15,2013-04-04 06:38:00,
2013-04-04 20:48:00,61.5,53.9,29.97,SE,140,1.0,1.0,76,0.00,,,0.00,Wunderground v.1.15,2013-04-04 06:48:00,
2013-04-04 20:53:00,61.6,53.6,29.97,SE,146,1.0,1.0,75,0.00,,,0.00,Wunderground v.1.15,2013-04-04 06:53:00,
2013-04-04 21:03:00,61.3,53.7,29.97,ESE,113,1.0,1.0,76,0.00,,,0.00,Wunderground v.1.15,2013-04-04 07:03:00,
2013-04-04 21:13:00,60.9,53.6,29.97,ESE,105,1.0,1.0,77,0.00,,,0.00,Wunderground v.1.15,2013-04-04 07:13:00,
2013-04-04 21:23:00,60.7,53.8,29.97,ESE,103,1.0,3.0,78,0.00,,,0.00,Wunderground v.1.15,2013-04-04 07:23:00,
2013-04-04 21:28:00,60.5,53.6,29.97,SSE,148,2.0,2.0,78,0.00,,,0.00,Wunderground v.1.15,2013-04-04 07:28:00,
2013-04-04 21:33:00,60.4,53.9,29.97,SE,136,2.0,2.0,79,0.00,,,0.00,Wunderground v.1.15,2013-04-04 07:33:00,
2013-04-04 21:43:00,60.3,53.8,29.97,ESE,113,1.0,2.0,79,0.00,,,0.00,Wunderground v.1.15,2013-04-04 07:43:00,
2013-04-04 21:53:00,60.5,53.6,29.97,SE,124,2.0,2.0,78,0.00,,,0.00,Wunderground v.1.15,2013-04-04 07:53:00,
2013-04-04 21:58:00,60.5,53.6,29.97,SE,125,2.0,2.0,78,0.00,,,0.00,Wunderground v.1.15,2013-04-04 07:58:00,
2013-04-04 22:08:00,60.4,53.5,29.97,ESE,122,2.0,2.0,78,0.00,,,0.00,Wunderground v.1.15,2013-04-04 08:08:00,
2013-04-04 22:13:00,60.4,53.5,29.97,SE,127,2.0,3.0,78,0.00,,,0.00,Wunderground v.1.15,2013-04-04 08:13:00,
2013-04-04 22:23:00,60.5,53.3,29.97,SE,145,2.0,2.0,77,0.00,,,0.00,Wunderground v.1.15,2013-04-04 08:23:00,
2013-04-04 22:28:00,60.5,52.9,29.97,SE,131,2.0,3.0,76,0.00,,,0.00,Wunderground v.1.15,2013-04-04 08:28:00,
2013-04-04 22:38:00,60.5,52.9,29.97,SE,136,2.0,3.0,76,0.00,,,0.00,Wunderground v.1.15,2013-04-04 08:38:00,
2013-04-04 22:48:00,60.4,52.4,29.97,East,97,3.0,3.0,75,0.00,,,0.00,Wunderground v.1.15,2013-04-04 08:48:00,
2013-04-04 22:53:00,60.5,52.5,29.97,ESE,120,3.0,3.0,75,0.00,,,0.00,Wunderground v.1.15,2013-04-04 08:53:00,
2013-04-04 23:03:00,60.4,52.1,29.97,East,101,2.0,4.0,74,0.00,,,0.00,Wunderground v.1.15,2013-04-04 09:03:00,
2013-04-04 23:13:00,60.4,51.7,29.97,SE,134,2.0,3.0,73,0.00,,,0.00,Wunderground v.1.15,2013-04-04 09:13:00,
2013-04-04 23:23:00,60.3,51.6,29.97,SE,134,2.0,4.0,73,0.00,,,0.00,Wunderground v.1.15,2013-04-04 09:23:00,
2013-04-04 23:28:00,60.3,51.2,29.97,SSE,159,2.0,2.0,72,0.00,,,0.00,Wunderground v.1.15,2013-04-04 09:28:00,
2013-04-04 23:38:00,60.4,50.6,29.97,SSE,158,2.0,4.0,70,0.00,,,0.00,Wunderground v.1.15,2013-04-04 09:38:00,
2013-04-04 23:48:00,60.6,49.2,29.97,SSE,162,2.0,3.0,66,0.00,,,0.00,Wunderground v.1.15,2013-04-04 09:48:00,
2013-04-04 23:58:00,61.3,46.8,29.97,SSE,153,4.0,4.0,59,0.00,,,0.00,Wunderground v.1.15,2013-04-04 09:58:00,